New Bern, NC

11:16 PM EDT on October 20, 2019 (GMT -0400)
Craven County Regional

Weather History for KEWN - August, 2019

Change the Weather History Date:

Thursday, August 8, 2019

  Actual Average Record
Temperature  
Mean Temperature 83 °F 80 °F  
Max Temperature 93 °F 89 °F 99 °F (2007)
Min Temperature 73 °F 71 °F 58 °F (2004)
Degree Days  
Heating Degree Days 0 0  
Month to date heating degree days 0 0  
Since 1 June heating degree days 0 1  
Since 1 July heating degree days 0 0  
Cooling Degree Days 18 15  
Month to date cooling degree days 124 120  
Year to date cooling degree days 1443 1210  
Since 1 June cooling degree days 1024 967  
Growing Degree Days 33 (Base 50)    
Moisture  
Dew Point 74 °F    
Average Humidity 82    
Maximum Humidity 100    
Minimum Humidity 46    
Precipitation  
Precipitation 0.00 in 0.23 in 1.55 in (1990)
Month to date precipitation 2.41 1.79  
Year to date precipitation 25.35 31.94  
Snow  
Snow 0.00 in - - ()
Month to date snowfall 0.0  
Since 1 July snowfall 0.0  
Snow Depth 0.00 in    
Sea Level Pressure  
Sea Level Pressure 29.85 in    
Wind  
Wind Speed 5 mph ()    
Max Wind Speed 14 mph    
Max Gust Speed 19 mph    
Visibility 9.7 miles    
Events      
T = Trace of Precipitation, MM = Missing Value Source: Averaged Metar Reports

Daily Weather History Graph

Daily Weather History Graph

Search for Another Location

Airport or City:

Astronomy

Aug. 08, 2019 Rise Set
Actual Time 6:22 AM EDT 8:04 PM EDT
Civil Twilight 5:55 AM EDT 8:31 PM EDT
Nautical Twilight 5:22 AM EDT 9:04 PM EDT
Astronomical Twilight 4:47 AM EDT 9:39 PM EDT
Moon 2:38 PM EDT (8/8) 12:41 AM EDT (8/8)
Length of Visible Light 14h 36m
Length of Day
13h 41m
First Quarter, 60% of the Moon is Illuminated
Aug 8
First Quarter
Aug 15
Full
Aug 23
Last Quarter
Aug 30
New
Sep 5
First Quarter

Hourly Weather History & Observations

Time (EDT) Temp. Heat Index Dew Point Humidity Pressure Visibility Wind Dir Wind Speed Gust Speed Precip Events Conditions
12:54 AM 75.0 °F - 73.0 °F 94% 29.86 in 10.0 mi SSW 6.9 mph - 0.00 in   Partly Cloudy
1:54 AM 75.0 °F - 73.0 °F 94% 29.86 in 10.0 mi SSW 6.9 mph - N/A   Clear
2:54 AM 77.0 °F - 75.0 °F 94% 29.86 in 10.0 mi WSW 6.9 mph - N/A   Partly Cloudy
3:18 AM 75.9 °F - 75.0 °F 97% 29.86 in 10.0 mi WNW 4.6 mph - N/A   Mostly Cloudy
3:38 AM 75.9 °F - 75.0 °F 97% 29.85 in 10.0 mi SW 4.6 mph - N/A   Scattered Clouds
3:54 AM 75.9 °F - 75.0 °F 97% 29.85 in 10.0 mi SW 4.6 mph - N/A   Partly Cloudy
4:54 AM 75.0 °F - 75.0 °F 100% 29.83 in 9.0 mi SW 3.5 mph - N/A   Scattered Clouds
5:54 AM 73.9 °F - 73.0 °F 97% 29.83 in 7.0 mi SW 4.6 mph - N/A   Clear
6:54 AM 75.0 °F - 73.9 °F 96% 29.83 in 7.0 mi SW 6.9 mph - N/A   Clear
7:54 AM 78.1 °F - 75.9 °F 93% 29.85 in 10.0 mi SW 8.1 mph - N/A   Clear
8:54 AM 81.0 °F 87.9 °F 77.0 °F 88% 29.86 in 10.0 mi WSW 6.9 mph - N/A   Clear
9:54 AM 84.9 °F 95.3 °F 77.0 °F 77% 29.86 in 10.0 mi West 6.9 mph - N/A   Clear
10:54 AM 87.1 °F 99.8 °F 78.1 °F 74% 29.87 in 10.0 mi WNW 5.8 mph - N/A   Scattered Clouds
11:54 AM 89.1 °F 101.4 °F 77.0 °F 67% 29.86 in 10.0 mi West 6.9 mph - N/A   Scattered Clouds
12:54 PM 90.0 °F 101.3 °F 75.9 °F 63% 29.85 in 10.0 mi West 8.1 mph - N/A   Scattered Clouds
1:54 PM 91.0 °F 102.9 °F 75.9 °F 61% 29.83 in 10.0 mi West 8.1 mph - N/A   Scattered Clouds
1:56 PM 91.4 °F 95.4 °F 68.0 °F 46% 29.85 in 10.0 mi WSW 5.8 mph - N/A   Clear
2:54 PM 93.0 °F 101.9 °F 73.0 °F 52% 29.82 in 10.0 mi West 10.4 mph - N/A   Partly Cloudy
3:54 PM 89.1 °F 100.2 °F 75.9 °F 65% 29.83 in 10.0 mi SSE 8.1 mph - N/A   Partly Cloudy
4:54 PM 86.0 °F 93.8 °F 73.9 °F 67% 29.83 in 10.0 mi South 8.1 mph - N/A   Partly Cloudy
5:54 PM 86.0 °F 95.1 °F 75.0 °F 70% 29.83 in 10.0 mi Variable 4.6 mph - N/A   Clear
6:54 PM 84.9 °F 90.7 °F 72.0 °F 65% 29.83 in 10.0 mi SSW 8.1 mph - N/A   Clear
7:54 PM 80.1 °F 84.5 °F 73.9 °F 81% 29.85 in 10.0 mi SW 5.8 mph - N/A   Clear
8:54 PM 78.1 °F - 73.0 °F 84% 29.86 in 10.0 mi WSW 4.6 mph - N/A   Clear
9:54 PM 75.9 °F - 73.0 °F 91% 29.86 in 10.0 mi Calm Calm - N/A   Clear
10:54 PM 75.0 °F - 73.0 °F 94% 29.87 in 10.0 mi Calm Calm - N/A   Clear
11:54 PM 73.9 °F - 73.0 °F 97% 29.86 in 9.0 mi WSW 3.5 mph - N/A   Clear